When you browse on this site, cookies collect data to enhance your experience and personalize the content and advertising you see.
Visit our Privacy Policy to learn more. By continuing to use the site, you agree to this use of cookies and data.
  • In Hungary
  • List of Countries
  • For 7 days
  • Water Temperature
  • Weather Map
  • News
  • Weather Widgets
  • user-avatar
    Login

    Hourly Weather Caño Grande

    Today, 18 November, Monday

    Time Temperature Precipitation Wind Pressure Humidity
    00:00 +22°C° 0 mm 1 mps 699 mmHg 85%
    01:00 +21°C° 0 mm 1 mps 699 mmHg 84%
    02:00 +21°C° 0 mm 1 mps 699 mmHg 83%
    03:00 +21°C° 0 mm 1 mps 699 mmHg 81%
    04:00 +21°C° 0 mm 1 mps 699 mmHg 80%
    05:00 +22°C° 0 mm 1 mps 700 mmHg 77%
    06:00 +22°C° 0 mm 1 mps 700 mmHg 74%
    07:00 +24°C° 0 mm 1 mps 701 mmHg 70%
    08:00 +25°C° 0 mm 1 mps 701 mmHg 68%
    09:00 +27°C° 0 mm 1 mps 701 mmHg 66%
    10:00 +28°C° 0 mm 2 mps 702 mmHg 64%
    11:00 +28°C° 0 mm 1 mps 701 mmHg 65%
    12:00 +29°C° 0 mm 1 mps 700 mmHg 66%
    13:00 +29°C° 0 mm 1 mps 700 mmHg 67%
    14:00 +28°C° 0.1 mm 1 mps 699 mmHg 71%
    15:00 +28°C° 0.1 mm 1 mps 699 mmHg 75%
    16:00 +27°C° 0.1 mm 1 mps 698 mmHg 79%
    17:00 +26°C° 0.1 mm 1 mps 699 mmHg 82%
    18:00 +25°C° 0.1 mm 1 mps 699 mmHg 85%
    19:00 +24°C° 0.1 mm 1 mps 699 mmHg 89%
    20:00 +24°C° 0 mm 1 mps 700 mmHg 88%
    21:00 +23°C° 0 mm 1 mps 700 mmHg 87%
    22:00 +23°C° 0 mm 1 mps 701 mmHg 85%
    23:00 +23°C° 0 mm 1 mps 701 mmHg 85%

    Tomorrow, 19 November, Tuesday

    Time Temperature Precipitation Wind Pressure Humidity
    00:00 +22°C° 0 mm 1 mps 700 mmHg 84%
    01:00 +22°C° 0 mm 1 mps 700 mmHg 83%
    02:00 +22°C° 0 mm 1 mps 700 mmHg 83%
    03:00 +22°C° 0 mm 1 mps 700 mmHg 83%
    04:00 +21°C° 0 mm 1 mps 700 mmHg 83%
    05:00 +22°C° 0 mm 1 mps 700 mmHg 81%
    06:00 +23°C° 0 mm 1 mps 701 mmHg 79%
    07:00 +22°C° 0 mm 0 mps 701 mmHg 77%
    08:00 +25°C° 0 mm 1 mps 702 mmHg 76%
    09:00 +26°C° 0 mm 1 mps 702 mmHg 75%
    10:00 +28°C° 0 mm 1 mps 702 mmHg 74%
    11:00 +28°C° 0.4 mm 1 mps 702 mmHg 75%
    12:00 +28°C° 0.4 mm 1 mps 701 mmHg 76%
    13:00 +28°C° 0.4 mm 1 mps 700 mmHg 77%
    14:00 +28°C° 0.3 mm 1 mps 700 mmHg 78%
    15:00 +27°C° 0.3 mm 1 mps 700 mmHg 80%
    16:00 +27°C° 0.3 mm 1 mps 699 mmHg 82%
    17:00 +26°C° 0.1 mm 1 mps 700 mmHg 85%
    18:00 +25°C° 0.1 mm 1 mps 700 mmHg 88%
    19:00 +24°C° 0.1 mm 1 mps 701 mmHg 91%
    20:00 +23°C° 0.3 mm 1 mps 701 mmHg 91%
    21:00 +23°C° 0.3 mm 1 mps 701 mmHg 91%
    22:00 +22°C° 0.3 mm 1 mps 702 mmHg 90%
    23:00 +22°C° 0.1 mm 1 mps 701 mmHg 90%

    Day after tomorrow, 20 November, Wednesday

    Time Temperature Precipitation Wind Pressure Humidity
    00:00 +22°C° 0.1 mm 1 mps 701 mmHg 89%
    01:00 +21°C° 0.1 mm 1 mps 701 mmHg 88%
    02:00 +21°C° 0 mm 1 mps 701 mmHg 88%
    03:00 +21°C° 0 mm 1 mps 701 mmHg 88%
    04:00 +21°C° 0 mm 1 mps 701 mmHg 88%
    05:00 +22°C° 0 mm 1 mps 701 mmHg 84%
    06:00 +23°C° 0 mm 1 mps 702 mmHg 81%
    07:00 +23°C° 0 mm 1 mps 702 mmHg 78%
    08:00 +25°C° 0 mm 1 mps 702 mmHg 75%
    09:00 +26°C° 0 mm 1 mps 703 mmHg 72%
    10:00 +28°C° 0 mm 2 mps 703 mmHg 69%
    11:00 +28°C° 0.2 mm 1 mps 702 mmHg 71%
    12:00 +28°C° 0.2 mm 1 mps 702 mmHg 73%
    13:00 +28°C° 0.2 mm 1 mps 701 mmHg 74%
    14:00 +28°C° 0.3 mm 1 mps 700 mmHg 76%
    15:00 +27°C° 0.3 mm 1 mps 700 mmHg 77%
    16:00 +27°C° 0.3 mm 1 mps 699 mmHg 79%
    17:00 +26°C° 0.1 mm 1 mps 700 mmHg 82%
    18:00 +25°C° 0.1 mm 1 mps 700 mmHg 86%
    19:00 +23°C° 0.1 mm 1 mps 700 mmHg 89%
    20:00 +23°C° 0.1 mm 1 mps 701 mmHg 88%
    21:00 +23°C° 0.1 mm 1 mps 701 mmHg 87%
    22:00 +22°C° 0.1 mm 1 mps 702 mmHg 86%
    23:00 +22°C° 0.1 mm 1 mps 701 mmHg 86%

    21 November, Thursday

    Time Temperature Precipitation Wind Pressure Humidity
    00:00 +22°C° 0.1 mm 1 mps 701 mmHg 87%
    01:00 +22°C° 0.1 mm 1 mps 700 mmHg 88%
    02:00 +22°C° 0 mm 1 mps 700 mmHg 88%
    03:00 +22°C° 0 mm 1 mps 700 mmHg 89%
    04:00 +20°C° 0 mm 0 mps 700 mmHg 89%
    05:00 +20°C° 0 mm 0 mps 701 mmHg 87%
    06:00 +21°C° 0 mm 0 mps 701 mmHg 85%
    07:00 +22°C° 0 mm 0 mps 702 mmHg 83%
    08:00 +25°C° 0.3 mm 1 mps 702 mmHg 80%
    09:00 +26°C° 0.3 mm 1 mps 702 mmHg 78%
    10:00 +27°C° 0.3 mm 2 mps 703 mmHg 75%
    11:00 +27°C° 0.7 mm 1 mps 702 mmHg 77%
    12:00 +27°C° 0.7 mm 1 mps 701 mmHg 79%
    13:00 +27°C° 0.7 mm 1 mps 700 mmHg 81%
    14:00 +27°C° 0.5 mm 1 mps 700 mmHg 82%
    15:00 +26°C° 0.5 mm 1 mps 699 mmHg 82%
    16:00 +26°C° 0.5 mm 1 mps 699 mmHg 83%
    17:00 +25°C° 0.4 mm 1 mps 699 mmHg 85%
    18:00 +24°C° 0.4 mm 1 mps 700 mmHg 88%
    19:00 +23°C° 0.4 mm 1 mps 700 mmHg 90%
    20:00 +23°C° 0.2 mm 1 mps 700 mmHg 89%
    21:00 +23°C° 0.2 mm 1 mps 701 mmHg 88%
    22:00 +22°C° 0.2 mm 1 mps 701 mmHg 87%
    23:00 +22°C° 0.1 mm 1 mps 701 mmHg 87%

    22 November, Friday

    Time Temperature Precipitation Wind Pressure Humidity
    00:00 +22°C° 0.1 mm 1 mps 700 mmHg 87%
    01:00 +21°C° 0.1 mm 1 mps 700 mmHg 86%
    02:00 +21°C° 0 mm 1 mps 700 mmHg 86%
    03:00 +21°C° 0 mm 1 mps 700 mmHg 86%
    04:00 +21°C° 0 mm 1 mps 700 mmHg 86%
    05:00 +22°C° 0 mm 1 mps 700 mmHg 83%
    06:00 +21°C° 0 mm 0 mps 701 mmHg 81%
    07:00 +21°C° 0 mm 0 mps 701 mmHg 79%
    08:00 +25°C° 0.1 mm 1 mps 702 mmHg 77%
    09:00 +26°C° 0.1 mm 1 mps 702 mmHg 74%
    10:00 +27°C° 0.1 mm 2 mps 702 mmHg 72%
    11:00 +27°C° 0.6 mm 2 mps 701 mmHg 74%
    12:00 +27°C° 0.6 mm 2 mps 701 mmHg 77%
    13:00 +27°C° 0.6 mm 1 mps 700 mmHg 80%
    14:00 +27°C° 0.5 mm 1 mps 699 mmHg 81%
    15:00 +27°C° 0.5 mm 1 mps 699 mmHg 82%
    16:00 +26°C° 0.5 mm 1 mps 699 mmHg 83%
    17:00 +25°C° 0.6 mm 1 mps 699 mmHg 87%
    18:00 +24°C° 0.6 mm 1 mps 699 mmHg 90%
    19:00 +23°C° 0.6 mm 1 mps 700 mmHg 94%
    20:00 +23°C° 0.4 mm 1 mps 700 mmHg 93%
    21:00 +23°C° 0.4 mm 1 mps 700 mmHg 92%
    22:00 +22°C° 0.4 mm 1 mps 701 mmHg 92%
    23:00 +22°C° 0.2 mm 1 mps 700 mmHg 92%

    23 November, Saturday

    Time Temperature Precipitation Wind Pressure Humidity
    00:00 +22°C° 0.2 mm 1 mps 700 mmHg 92%
    01:00 +21°C° 0.2 mm 1 mps 700 mmHg 92%
    02:00 +21°C° 0 mm 1 mps 700 mmHg 92%
    03:00 +21°C° 0 mm 1 mps 700 mmHg 92%
    04:00 +19°C° 0 mm 0 mps 700 mmHg 92%
    05:00 +20°C° 0 mm 0 mps 700 mmHg 89%
    06:00 +21°C° 0 mm 0 mps 701 mmHg 87%
    07:00 +21°C° 0 mm 0 mps 701 mmHg 85%
    08:00 +24°C° 0.1 mm 1 mps 702 mmHg 81%
    09:00 +26°C° 0.1 mm 1 mps 702 mmHg 78%
    10:00 +27°C° 0.1 mm 2 mps 702 mmHg 74%
    11:00 +27°C° 0.5 mm 2 mps 702 mmHg 76%
    12:00 +27°C° 0.5 mm 1 mps 701 mmHg 78%
    13:00 +27°C° 0.5 mm 1 mps 700 mmHg 80%
    14:00 +27°C° 0.4 mm 1 mps 700 mmHg 80%
    15:00 +27°C° 0.4 mm 1 mps 699 mmHg 80%
    16:00 +26°C° 0.4 mm 1 mps 699 mmHg 80%
    17:00 +25°C° 0 mm 1 mps 699 mmHg 83%
    18:00 +24°C° 0 mm 1 mps 699 mmHg 87%
    19:00 +23°C° 0 mm 1 mps 700 mmHg 90%
    20:00 +22°C° 0.1 mm 1 mps 700 mmHg 89%
    21:00 +22°C° 0.1 mm 1 mps 701 mmHg 88%
    22:00 +22°C° 0.1 mm 1 mps 701 mmHg 87%
    23:00 +21°C° 0 mm 1 mps 700 mmHg 87%
    Show more